[[{"header":{"parameterUnit":"m.s-1","parameterCategory":1,"la1":30.2991,"la2":30.254,"lo1":-89.0895,"lo2":-89.0444,"dy":0.0017,"dx":0.0017,"nx":28,"ny":28,"refTime":"2025-12-19T03:00:00:Z","depth":0,"parameterNumber":2,"parameterNumberName":"U-component_of_WINDS"},"data":[0,0,0,0,0,0,0,0,0,0,0,0,0,0,0,0,0,0,0,0,0,0,0,0,0,0,0,0,0,0,0,0,0,0,0,0,0,0,0,0,0,0,0,0,0,0,0,0,0,0,0,0,0,0,0,0,0,0,-2.2434,-2.2434,0,-2.2469,-2.2469,-2.247,-2.2491,-2.2491,-2.2491,-2.2491,-2.2524,-2.2525,-2.2526,0,0,0,0,0,0,0,0,0,0,0,0,0,-2.2382,-2.2383,-2.2434,-2.2434,-2.2435,-2.2469,-2.2469,-2.247,-2.2491,-2.2491,-2.2491,-2.2491,-2.2524,-2.2525,-2.2526,0,0,0,0,0,0,0,0,0,0,0,0,0,-2.2409,-2.2383,-2.2434,-2.245,-2.2451,-2.2469,-2.2469,-2.247,-2.2491,-2.2491,-2.2491,-2.2492,-2.2524,-2.2525,-2.2526,-2.253,0,0,-2.253,-2.253,0,0,0,0,0,0,0,0,-2.2408,-2.2411,-2.2447,-2.2449,-2.2451,-2.2476,-2.2463,-2.249,-2.2491,-2.2476,-2.2491,-2.2492,-2.2508,-2.251,-2.2517,-2.2531,-2.2533,-2.253,-2.253,-2.2531,-2.2531,0,0,0,0,0,0,0,-2.2406,-2.241,-2.2448,-2.2447,-2.245,-2.2454,-2.2458,-2.2468,-2.249,-2.2477,-2.2479,-2.2483,-2.2509,-2.2515,-2.2517,-2.2533,-2.253,-2.2531,-2.2532,-2.2532,-2.2552,-2.2551,0,0,0,0,0,0,-2.2402,-2.2408,-2.2447,-2.2449,-2.2429,-2.2455,-2.2459,-2.2467,-2.249,-2.2494,-2.2483,-2.2484,-2.2513,-2.2516,-2.2519,-2.2524,-2.2531,-2.2532,-2.2533,-2.2552,-2.2552,-2.2551,0,0,0,0,0,0,-2.2401,-2.2405,-2.2445,-2.2429,-2.2434,-2.2455,-2.2464,-2.2468,-2.2475,-2.2495,-2.2498,-2.2485,-2.2514,-2.2517,-2.2527,-2.2525,-2.2533,-2.2534,-2.2552,-2.2552,-2.2551,-2.2534,0,0,0,0,0,0,-2.2399,-2.2405,-2.2407,-2.2429,-2.2435,-2.2454,-2.2464,-2.2469,-2.2477,-2.2479,-2.2498,-2.2501,-2.2514,-2.2525,-2.2528,-2.2527,-2.2535,-2.2552,-2.2552,-2.2552,-2.2535,-2.2534,-2.2532,0,0,0,0,0,-2.2397,-2.2401,-2.2407,-2.2412,-2.2439,-2.2454,-2.2457,-2.2472,-2.2477,-2.2479,-2.2491,-2.2501,-2.2525,-2.2526,-2.2529,-2.2529,-2.2552,-2.2552,-2.2552,-2.2536,-2.2534,-2.2532,0,0,0,0,0,0,-2.2377,-2.2404,-2.2411,-2.2422,-2.2435,-2.2457,-2.246,-2.247,-2.2482,-2.2483,-2.25,-2.2504,-2.2512,-2.2521,-2.2522,-2.2533,-2.254,-2.254,-2.2527,-2.2525,-2.2523,-2.2521,-2.2536,0,0,0,0,0,-2.2374,-2.2385,-2.2407,-2.2414,-2.2421,-2.2439,-2.2446,-2.2457,-2.2471,-2.2477,-2.249,-2.2503,-2.2513,-2.2519,-2.253,-2.2537,-2.2541,-2.2538,-2.2536,-2.2535,-2.2535,-2.2538,-2.2537,-2.255,-2.255,-2.255,0,0,-2.2368,-2.2384,-2.2389,-2.2411,-2.2422,-2.2432,-2.2444,-2.2454,-2.2461,-2.2478,-2.2488,-2.2498,-2.2513,-2.2521,-2.2525,-2.2529,-2.2532,-2.2535,-2.2533,-2.2534,-2.2538,-2.2536,-2.2535,-2.255,-2.255,-2.255,0,0,-2.2361,-2.2375,-2.2382,-2.2393,-2.2411,-2.2423,-2.2425,-2.2445,-2.2452,-2.2463,-2.2476,-2.2484,-2.2502,-2.2512,-2.2519,-2.2515,-2.2524,-2.2518,-2.251,-2.2513,-2.2512,-2.2511,-2.2509,-2.2508,-2.2518,-2.2518,-2.2518,0,-2.2351,-2.2367,-2.2384,-2.2393,-2.2402,-2.2418,-2.2425,-2.2434,-2.2454,-2.2459,-2.2464,-2.2486,-2.2497,-2.2507,-2.2506,-2.2512,-2.2513,-2.2516,-2.2511,-2.251,-2.251,-2.2508,-2.2507,-2.2517,-2.2517,-2.2517,-2.2517,0,-2.2353,-2.2364,-2.2367,-2.2387,-2.2395,-2.2403,-2.242,-2.2427,-2.2436,-2.2447,-2.2457,-2.2471,-2.2485,-2.2488,-2.2497,-2.2499,-2.2501,-2.2508,-2.2515,-2.2507,-2.2506,-2.2505,-2.2516,-2.2516,-2.2516,-2.2516,0,0,-2.2335,-2.2364,-2.2365,-2.2373,-2.2393,-2.2401,-2.2409,-2.2423,-2.2428,-2.2441,-2.2447,-2.2462,-2.2468,-2.2476,-2.2486,-2.2489,-2.2484,-2.2495,-2.2496,-2.2492,-2.2486,-2.248,-2.2479,-2.249,-2.249,-2.249,-2.2484,0,-2.2331,-2.2347,-2.2362,-2.2372,-2.2382,-2.2397,-2.2404,-2.2416,-2.2426,-2.2435,-2.2446,-2.2456,-2.2464,-2.2469,-2.2472,-2.2484,-2.2483,-2.2484,-2.2495,-2.2495,-2.249,-2.2478,-2.2473,-2.2467,-2.2484,-2.2484,-2.2484,0,-2.2329,-2.2342,-2.2353,-2.2371,-2.2376,-2.2382,-2.2395,-2.2403,-2.2417,-2.2425,-2.2434,-2.2444,-2.2452,-2.2458,-2.2469,-2.2469,-2.2474,-2.2481,-2.2481,-2.2482,-2.2489,-2.2479,-2.2465,-2.2464,-2.2483,-2.2483,-2.2483,0,-2.2314,-2.2334,-2.2343,-2.235,-2.2372,-2.2375,-2.2384,-2.2399,-2.2406,-2.2417,-2.2421,-2.2433,-2.2439,-2.2448,-2.2461,-2.2465,-2.2469,-2.2477,-2.2475,-2.2474,-2.2475,-2.2475,-2.2462,-2.2479,-2.2479,-2.2479,-2.2479,0,-2.2308,-2.2314,-2.2337,-2.2342,-2.2349,-2.2365,-2.2371,-2.2381,-2.2393,-2.24,-2.2414,-2.242,-2.2437,-2.2445,-2.2455,-2.2461,-2.2464,-2.247,-2.2472,-2.2468,-2.2467,-2.2471,-2.2472,-2.2479,-2.2479,-2.2479,-2.2479,0,-2.2293,-2.2308,-2.2319,-2.2339,-2.2344,-2.2348,-2.2364,-2.2369,-2.238,-2.2389,-2.2391,-2.2408,-2.2418,-2.2432,-2.2446,-2.2453,-2.2457,-2.2462,-2.2453,-2.2454,-2.2451,-2.2451,-2.244,-2.2439,-2.2457,-2.2457,-2.2456,0,-2.2288,-2.2293,-2.2313,-2.2319,-2.2328,-2.2337,-2.2344,-2.236,-2.2367,-2.2382,-2.2385,-2.2396,-2.2406,-2.242,-2.2433,-2.2443,-2.2448,-2.2443,-2.2449,-2.2445,-2.2447,-2.2446,-2.2446,-2.2441,-2.2441,-2.2441,-2.2441,0,-2.2277,-2.2284,-2.2295,-2.2307,-2.2316,-2.2326,-2.2337,-2.2341,-2.2359,-2.2366,-2.2376,-2.2383,-2.2397,-2.2407,-2.2419,-2.2427,-2.2437,-2.2439,-2.2439,-2.2434,-2.2429,-2.2431,-2.2448,-2.2439,-2.2439,-2.2439,-2.2439,-2.2439,-2.2266,-2.2271,-2.2286,-2.2297,-2.2307,-2.2316,-2.2322,-2.2334,-2.2343,-2.2356,-2.2364,-2.2374,-2.2386,-2.2403,-2.2411,-2.2418,-2.2422,-2.2422,-2.2422,-2.2421,-2.2419,-2.2428,-2.242,-2.242,-2.242,-2.242,-2.242,0,-2.2256,-2.2266,-2.2275,-2.2291,-2.2299,-2.2307,-2.232,-2.2325,-2.2334,-2.2345,-2.2354,-2.2365,-2.2375,-2.2388,-2.2398,-2.2401,-2.2406,-2.2403,-2.2403,-2.2405,-2.2416,-2.2415,-2.24,-2.24,-2.24,-2.24,-2.24,-2.24,-2.2251,-2.2259,-2.2268,-2.228,-2.229,-2.23,-2.2306,-2.2315,-2.2324,-2.2336,-2.2344,-2.2353,-2.2365,-2.2376,-2.2385,-2.2388,-2.2391,-2.2387,-2.2392,-2.2402,-2.2404,-2.2406,-2.2405,-2.2388,-2.2388,-2.238,-2.238,-2.238]},{"header":{"parameterUnit":"m.s-1","parameterCategory":1,"la1":30.2991,"la2":30.254,"lo1":-89.0895,"lo2":-89.0444,"dy":0.0017,"dx":0.0017,"nx":28,"ny":28,"refTime":"2025-12-19T03:00:00:Z","depth":0,"parameterNumber":3,"parameterNumberName":"V-component_of_WINDS"},"data":[0,0,0,0,0,0,0,0,0,0,0,0,0,0,0,0,0,0,0,0,0,0,0,0,0,0,0,0,0,0,0,0,0,0,0,0,0,0,0,0,0,0,0,0,0,0,0,0,0,0,0,0,0,0,0,0,0,0,2.8167,2.8168,0,2.8303,2.8304,2.8306,2.8409,2.841,2.841,2.8411,2.8552,2.8554,2.8557,0,0,0,0,0,0,0,0,0,0,0,0,0,2.8001,2.8004,2.8166,2.8168,2.817,2.8302,2.8304,2.8306,2.8408,2.841,2.8411,2.8412,2.8551,2.8554,2.8558,0,0,0,0,0,0,0,0,0,0,0,0,0,2.8099,2.8005,2.8166,2.8237,2.8245,2.8302,2.8304,2.8307,2.8408,2.841,2.8411,2.8412,2.855,2.8554,2.8558,2.8556,0,0,2.8571,2.8573,0,0,0,0,0,0,0,0,2.8093,2.8105,2.8225,2.8232,2.8241,2.834,2.8298,2.839,2.8408,2.8346,2.8411,2.8413,2.848,2.849,2.8513,2.8563,2.8569,2.8572,2.8574,2.8576,2.8577,0,0,0,0,0,0,0,2.8086,2.8099,2.822,2.8226,2.8236,2.8264,2.8279,2.8316,2.8404,2.8352,2.8359,2.8374,2.8485,2.8508,2.8517,2.8571,2.8571,2.8575,2.8578,2.858,2.8635,2.8634,0,0,0,0,0,0,2.8068,2.8093,2.8216,2.8224,2.8169,2.8266,2.8283,2.8307,2.8403,2.842,2.8373,2.8378,2.85,2.8512,2.8522,2.8532,2.8576,2.858,2.8582,2.8636,2.8635,2.8634,0,0,0,0,0,0,2.8064,2.8078,2.8211,2.8161,2.818,2.8267,2.8293,2.8309,2.8332,2.8419,2.8436,2.838,2.8502,2.8516,2.8549,2.8538,2.8582,2.8586,2.8638,2.8636,2.8634,2.8547,0,0,0,0,0,0,2.8059,2.8076,2.8074,2.816,2.8182,2.8233,2.8292,2.831,2.8339,2.8348,2.8431,2.8446,2.8504,2.8542,2.8553,2.8544,2.8589,2.8639,2.8637,2.8635,2.8551,2.8543,2.8535,0,0,0,0,0,2.8052,2.8043,2.8073,2.8088,2.8182,2.8232,2.8245,2.8311,2.8338,2.8339,2.8396,2.8443,2.8537,2.8544,2.8558,2.855,2.864,2.8637,2.8635,2.8555,2.8544,2.8535,0,0,0,0,0,0,2.7952,2.8055,2.809,2.8108,2.816,2.8249,2.8251,2.8297,2.8343,2.8349,2.8431,2.8449,2.8474,2.8516,2.8522,2.8558,2.8595,2.8595,2.8529,2.852,2.8512,2.8502,2.8593,0,0,0,0,0,2.7932,2.7962,2.8051,2.8059,2.8083,2.8163,2.8187,2.8234,2.8292,2.8315,2.8374,2.8429,2.8473,2.8499,2.8542,2.8558,2.8581,2.856,2.8552,2.8545,2.8545,2.8563,2.8556,2.8626,2.8626,2.8626,0,0,2.789,2.7951,2.7965,2.804,2.8086,2.8119,2.818,2.821,2.8237,2.832,2.8355,2.8401,2.8469,2.8495,2.8509,2.853,2.8531,2.8542,2.8536,2.8539,2.8559,2.8553,2.8547,2.8624,2.8624,2.8625,0,0,2.7832,2.7879,2.7893,2.7939,2.801,2.8063,2.8067,2.815,2.8184,2.8221,2.8287,2.832,2.839,2.8437,2.847,2.8438,2.8485,2.845,2.8408,2.8424,2.8419,2.8415,2.8407,2.8403,2.8449,2.8449,2.8449,0,2.7772,2.7822,2.7894,2.7923,2.7956,2.8035,2.8052,2.8093,2.8174,2.8196,2.8219,2.8314,2.8364,2.8405,2.8398,2.8421,2.8431,2.844,2.8414,2.841,2.8407,2.8401,2.8397,2.8444,2.8445,2.8445,2.8446,0,2.7747,2.7782,2.7785,2.7862,2.7896,2.7918,2.7997,2.8023,2.8069,2.8122,2.8162,2.8227,2.8288,2.8301,2.8345,2.8351,2.8362,2.8398,2.8437,2.8395,2.8391,2.8388,2.8438,2.8439,2.8441,2.8442,0,0,2.7626,2.7748,2.7748,2.7787,2.7873,2.7902,2.793,2.7991,2.8014,2.8068,2.8097,2.8158,2.8194,2.8231,2.8283,2.8297,2.8273,2.8332,2.8335,2.8322,2.8289,2.8263,2.8259,2.8305,2.8305,2.8305,2.8285,0,2.7584,2.7638,2.7706,2.7738,2.7774,2.7852,2.7877,2.7935,2.7986,2.8026,2.8083,2.8127,2.8168,2.8193,2.821,2.8272,2.8268,2.8274,2.8336,2.8337,2.8318,2.8256,2.8227,2.8205,2.8283,2.8283,2.8283,0,2.7541,2.7593,2.7628,2.7717,2.7735,2.7756,2.782,2.7856,2.7925,2.7962,2.8007,2.8064,2.8102,2.8137,2.8193,2.8196,2.8226,2.8261,2.8262,2.8271,2.8308,2.8266,2.8199,2.8196,2.828,2.828,2.8281,0,2.7454,2.7533,2.7566,2.7597,2.7699,2.7714,2.7758,2.7828,2.7862,2.7919,2.7943,2.8003,2.8037,2.8084,2.8157,2.8175,2.8208,2.8247,2.8243,2.8241,2.8246,2.8245,2.8184,2.8261,2.8262,2.8262,2.8262,0,2.74,2.742,2.7529,2.7549,2.7576,2.7656,2.7681,2.7732,2.7795,2.783,2.7901,2.7932,2.8026,2.807,2.8127,2.8169,2.8182,2.8216,2.8231,2.821,2.8207,2.8232,2.8236,2.8261,2.8261,2.8261,2.8261,0,2.7307,2.7381,2.7423,2.7518,2.7543,2.7558,2.7642,2.7667,2.7724,2.7767,2.7782,2.7873,2.7929,2.8007,2.8086,2.8125,2.8159,2.8182,2.8136,2.8145,2.8138,2.8138,2.8093,2.8093,2.8167,2.8166,2.8165,0,2.7269,2.7286,2.7385,2.7413,2.7455,2.7498,2.7535,2.7617,2.7652,2.7736,2.7752,2.7813,2.7867,2.7953,2.8028,2.8091,2.8117,2.8098,2.8127,2.8108,2.8121,2.812,2.8125,2.809,2.8089,2.8088,2.8087,0,2.7195,2.7232,2.728,2.7343,2.7384,2.7438,2.7495,2.7514,2.761,2.7646,2.7705,2.7746,2.783,2.7892,2.7966,2.8014,2.8068,2.8077,2.808,2.806,2.8034,2.8052,2.8119,2.8078,2.8079,2.8079,2.808,2.808,2.713,2.7151,2.7225,2.7279,2.7331,2.7384,2.7413,2.7476,2.7526,2.76,2.7646,2.7703,2.7779,2.7884,2.7931,2.798,2.8001,2.8004,2.8005,2.8005,2.8,2.8025,2.7993,2.7993,2.7994,2.7994,2.7994,0,2.7063,2.7115,2.7163,2.7242,2.7286,2.7332,2.74,2.7434,2.7483,2.7548,2.76,2.7671,2.7733,2.7814,2.7883,2.7907,2.7934,2.7923,2.7923,2.7934,2.7975,2.7967,2.79,2.79,2.79,2.79,2.79,2.79,2.7033,2.7072,2.7119,2.7187,2.7241,2.7297,2.7332,2.7383,2.7436,2.7511,2.7563,2.7616,2.769,2.7766,2.7827,2.785,2.7873,2.7855,2.7885,2.7922,2.793,2.7938,2.7932,2.7858,2.7858,2.7841,2.7841,2.7841]}]]